Lexington Weather

Lexington, Massachusetts, USA

29°F
3/6/2021 6:53pm 
  • Lexington Conditions: Partly cloudy
  • Temperature: 28.9°F / -1.7°CColder 1.3°F than last hour.
  • Dew Point: 11.7°FDecreased 1.6°Fsince last hour.
  • Relative Humidity: 48%Decreased 1.0% since last hour.
  • Wind: Wind from NW NW 2 mph, 10-min avg: 2 mph, gust: 5 mph
  • Barometer: 30.03 inRising 0.04  inHg/hr Rising Slowly
  • Visibility: 10 miles
  • Snow Today: 0.0 in
  •   

Regional Weather Roundup
for Boston / Norton, MA

        
000
ASUS41 KBOX 280204
RWRBOX

REGIONAL WEATHER ROUNDUP
NATIONAL WEATHER SERVICE BOSTON/NORTON MA
900 PM EST SAT FEB 27 2021

NOTE:  "FAIR" INDICATES FEW OR NO CLOUDS BELOW 12,000 FEET WITH NO 
SIGNIFICANT WEATHER AND/OR OBSTRUCTIONS TO VISIBILITY.

MAZALL-280300-
EASTERN MASSACHUSETTS
  
CITY           SKY/WX    TMP DP  RH WIND       PRES   REMARKS
BOSTON         NOT AVBL                                               
BEVERLY        FOG       36  36 100 W3        30.03R VSB 1/4          
LAWRENCE       NOT AVBL                                               
BEDFORD        PTCLDY    32  31  96 CALM      30.04R FOG              
BLUE HILL        N/A     39  39 100 W14G21    30.02R WCI  31          
NORWOOD        NOT AVBL                                               
MARSHFIELD     NOT AVBL                                               
PLYMOUTH       NOT AVBL                                               
TAUNTON        NOT AVBL                                               
NEW BEDFORD    NOT AVBL                                               
$$

MAZALL-280300-
CAPE COD AND THE ISLANDS
  
CITY           SKY/WX    TMP DP  RH WIND       PRES   REMARKS
FALMOUTH       PTCLDY    45  46 100 NW12G20   30.05R                  
HYANNIS        NOT AVBL                                               
CHATHAM        NOT AVBL                                               
NANTUCKET      NOT AVBL                                               
MARTHAS VNYRD  NOT AVBL                                               
$$
 
MAZALL-280300-
CENTRAL AND WESTERN MASSACHUSETTS
  
CITY           SKY/WX    TMP DP  RH WIND       PRES   REMARKS
WORCESTER      NOT AVBL                                               
FITCHBURG      NOT AVBL                                               
ORANGE         NOT AVBL                                               
SPRINGFIELD    NOT AVBL                                               
WESTFIELD      NOT AVBL                                               
NORTH ADAMS    CLOUDY    43  32  65 NW12G23   30.15R                  
$$
 
RIZALL-280300-
RHODE ISLAND
  
CITY           SKY/WX    TMP DP  RH WIND       PRES   REMARKS
PROVIDENCE     CLEAR     47  39  74 NW7G17    30.07R                  
NEWPORT        NOT AVBL                                               
WESTERLY       NOT AVBL                                               
$$
 
CTZALL-280300-
CONNECTICUT
  
CITY           SKY/WX    TMP DP  RH WIND       PRES   REMARKS
BRADLEY INTL   CLOUDY    32  31  96 SE5       30.10R FOG     WCI  27  
HARTFORD       NOT AVBL                                               
BRIDGEPORT     NOT AVBL                                               
GROTON         NOT AVBL                                               
NEW HAVEN      NOT AVBL                                               
CHESTER        NOT AVBL                                               
MERIDEN        FOG       36  33  89 CALM      30.12R VSB 1/2          
WILLIMANTIC    NOT AVBL                                               
OXFORD         PTCLDY    41  40  96 NW7       30.12R                  
$$

MEZ002-015-021-024-NHZ003-005-008-011-012-014-VTZ005-008-280300-
NORTHERN NEW ENGLAND
  
CITY           SKY/WX    TMP DP  RH WIND       PRES   REMARKS
PORTLAND ME    PTCLDY    34  34 100 W6        29.96R WCI  29          
BANGOR ME      NOT AVBL                                               
CONCORD NH     CLEAR     31  29  92 CALM      30.03R                  
MANCHESTER NH  NOT AVBL                                               
NASHUA NH      NOT AVBL                                               
PORTSMOUTH NH  NOT AVBL                                               
JAFFREY NH     NOT AVBL                                               
KEENE NH       FOG       30  30 100 CALM      30.07R VSB 1/4          
BURLINGTON VT  NOT AVBL                                               
MT. WASHINGTON NOT AVBL                                               
$$

NYZ052-076-280300-
EASTERN NEW YORK
  
CITY           SKY/WX    TMP DP  RH WIND       PRES   REMARKS
ALBANY         CLOUDY    40  31  70 W14G22    30.19R                  
NEW YORK CITY  MOCLDY    47  38  71 W7        30.16R                  
$$
 
ANZALL-280300-
MARINE OBSERVATIONS
  
STATION/POSITION TIME  TEMP    WIND        PRES    VSBY  WAVE
                       AIR SEA DIR/SP/G                  HT/PER
                 (UTC) (F)     (DEG/KT/KT) (MB)    (MI)  (FT/S)
BOSTON BUOY      0140   39 38  280/  8/ 12 1017.5R
BUZZARDS BAY     0100          290/ 18/ 18 1017.8R
NANTUCKET SOUND  0140      37  280/ 10/ 12   N/A
MASS BAY-STELLWA 0104   40     270/ 12/ 14 1015.0R  1 7/8  4/ 6
ISLE OF SHOALS   0100   38     250/ 15/ 16 1014.8R
S OF BLOCK IS    0126      40                N/A           9/ 9
$$

......................KEY.........................
  SKY/WX - SKY CONDITION/PRESENT WEATHER
  TMP    - TEMPERATURE IN FAHRENHEIT
  DWPT   - DEWPOINT IN FAHRENHEIT
  RH     - RELATIVE HUMIDITY IN PERCENT
  WIND   - DIRECTION AND SPEED IN MPH
  PRES   - MEAN SEA LEVEL PRESSURE IN INCHES OF HG
  WCI    - WIND CHILL INDEX
  VSB    - VISIBILITY IN MILES
  HX     - HEAT INDEX
  TC     - TEMPERATURE IN CELSIUS
  VRB    - VARIABLE WIND DIRECTION
  N/A    - NOT AVAILABLE
  
      

Other recent Regional Weather Roundups

Sat Mar 6, 6:04pm

Sat Mar 6, 5:04pm

Sat Mar 6, 4:05pm

Sat Mar 6, 3:04pm

Sat Mar 6, 2:04pm

Sat Mar 6, 1:05pm

Sat Mar 6, 12:04pm

Sat Mar 6, 11:04am

Sat Mar 6, 10:04am

Sat Mar 6, 9:04am

Sat Mar 6, 8:04am

Sat Mar 6, 7:04am

Sat Mar 6, 6:04am

Sat Mar 6, 5:04am

Sat Mar 6, 4:04am

Sat Mar 6, 3:04am

Sat Mar 6, 2:04am

Sat Mar 6, 1:04am

Sat Mar 6, 12:04am

Fri Mar 5, 11:04pm

Fri Mar 5, 10:04pm

Fri Mar 5, 9:04pm

Fri Mar 5, 8:04pm

Fri Mar 5, 7:04pm

Fri Mar 5, 6:04pm

Fri Mar 5, 5:04pm

Fri Mar 5, 4:05pm

Fri Mar 5, 3:04pm

Fri Mar 5, 2:04pm

Fri Mar 5, 1:04pm

Fri Mar 5, 12:04pm

Fri Mar 5, 11:04am

Fri Mar 5, 10:04am

Fri Mar 5, 9:04am

Fri Mar 5, 8:04am

Fri Mar 5, 7:04am

Fri Mar 5, 6:04am

Fri Mar 5, 5:04am

Fri Mar 5, 4:04am

Fri Mar 5, 3:04am

Fri Mar 5, 2:04am

Fri Mar 5, 1:04am

Fri Mar 5, 12:04am

Thu Mar 4, 11:04pm

Thu Mar 4, 10:04pm

Thu Mar 4, 9:04pm

Thu Mar 4, 8:04pm

Thu Mar 4, 7:04pm

Thu Mar 4, 6:04pm

Thu Mar 4, 5:04pm

Thu Mar 4, 4:04pm

Thu Mar 4, 3:04pm

Thu Mar 4, 2:04pm

Thu Mar 4, 1:04pm

Thu Mar 4, 12:04pm

Thu Mar 4, 11:04am

Thu Mar 4, 10:04am

Thu Mar 4, 9:04am

Thu Mar 4, 8:04am

Thu Mar 4, 7:04am

Thu Mar 4, 6:04am

Thu Mar 4, 5:04am

Thu Mar 4, 4:04am

Thu Mar 4, 3:04am

Thu Mar 4, 2:04am

Thu Mar 4, 1:04am

Thu Mar 4, 12:04am

Wed Mar 3, 11:04pm

Wed Mar 3, 10:04pm

Wed Mar 3, 9:04pm

Wed Mar 3, 8:04pm

Wed Mar 3, 7:04pm

Wed Mar 3, 6:04pm

Wed Mar 3, 5:04pm

Wed Mar 3, 4:04pm

Wed Mar 3, 3:04pm

Wed Mar 3, 2:04pm

Wed Mar 3, 1:04pm

Wed Mar 3, 12:04pm

Wed Mar 3, 11:04am

Wed Mar 3, 10:04am

Wed Mar 3, 9:04am

Wed Mar 3, 8:04am

Wed Mar 3, 7:04am

Wed Mar 3, 6:05am

Wed Mar 3, 5:04am

Wed Mar 3, 4:04am

Wed Mar 3, 3:04am

Wed Mar 3, 2:04am

Wed Mar 3, 1:04am

Wed Mar 3, 12:04am

Tue Mar 2, 11:04pm

Tue Mar 2, 10:05pm

Tue Mar 2, 9:04pm

Tue Mar 2, 8:04pm

Tue Mar 2, 7:04pm

Tue Mar 2, 6:04pm

Tue Mar 2, 5:04pm

Tue Mar 2, 4:05pm

Tue Mar 2, 3:04pm

Tue Mar 2, 2:04pm

Tue Mar 2, 1:04pm

Tue Mar 2, 12:04pm

Tue Mar 2, 11:04am

Tue Mar 2, 10:05am

Tue Mar 2, 9:04am

Tue Mar 2, 8:04am

Tue Mar 2, 7:04am

Tue Mar 2, 6:05am

Tue Mar 2, 5:04am

Tue Mar 2, 4:04am

Tue Mar 2, 3:04am

Tue Mar 2, 2:04am

Tue Mar 2, 1:04am

Tue Mar 2, 12:04am

Mon Mar 1, 11:04pm

Mon Mar 1, 10:04pm

Mon Mar 1, 9:04pm

Mon Mar 1, 8:04pm

Mon Mar 1, 7:04pm

Mon Mar 1, 6:04pm

Mon Mar 1, 5:04pm

Mon Mar 1, 4:05pm

Mon Mar 1, 3:05pm

Mon Mar 1, 2:04pm

Mon Mar 1, 1:04pm

Mon Mar 1, 12:04pm

Mon Mar 1, 11:04am

Mon Mar 1, 10:04am

Mon Mar 1, 9:04am

Mon Mar 1, 8:05am

Mon Mar 1, 7:04am

Mon Mar 1, 6:04am

Mon Mar 1, 5:04am

Mon Mar 1, 4:05am

Mon Mar 1, 3:04am

Mon Mar 1, 2:04am

Mon Mar 1, 1:04am

Mon Mar 1, 12:05am

Sun Feb 28, 11:04pm

Sun Feb 28, 10:04pm

Sun Feb 28, 9:04pm

Sun Feb 28, 8:04pm

Sun Feb 28, 7:04pm

Sun Feb 28, 6:05pm

Sun Feb 28, 5:04pm

Sun Feb 28, 4:05pm

Sun Feb 28, 3:04pm

Sun Feb 28, 2:04pm

Sun Feb 28, 1:04pm

Sun Feb 28, 12:04pm

Sun Feb 28, 11:04am

Sun Feb 28, 10:04am

Sun Feb 28, 9:04am

Sun Feb 28, 8:04am

Sun Feb 28, 7:04am

Sun Feb 28, 6:04am

Sun Feb 28, 5:04am

Sun Feb 28, 4:04am

Sun Feb 28, 3:04am

Sun Feb 28, 2:04am

Sun Feb 28, 1:04am

Sun Feb 28, 12:04am

Sat Feb 27, 11:04pm

Sat Feb 27, 10:04pm

Sat Feb 27, 8:04pm

Sat Feb 27, 7:04pm

Meta data:

ID: 93d763c9-f242-4f4e-b7b1-bb6e87041dd2
Link: https://api.weather.gov/products/93d763c9-f242-4f4e-b7b1-bb6e87041dd2